632  
ASUS43 KEAX 210710  
RWREAX  
 
WEATHER ROUNDUP FOR EASTERN KANSAS AND NORTHWEST MISSOURI  
NATIONAL WEATHER SERVICE KANSAS CITY/PLEASANT HILL MO  
100 AM CST WED FEB 21 2018  
 
KSZ040-057-103>105-MOZ028-029-037-043-210800-   
..KANSAS CITY METROPOLITAN AREA
 
 
 
CITY SKY/WX TMP DP RH WIND PRES REMARKS
 
K.C. INTL CLOUDY 18 13 80 N13 30.42R WCI 5  
K.C. DOWNTOWN CLOUDY 21 14 74 N12 30.43R WCI 9  
LEES SUMMIT MOCLDY 20 17 88 MISG 30.41R  
OLATHE - IXD PTCLDY 18 15 88 N16 30.40R WCI 3  
OLATHE - OJC PTCLDY 18 15 88 N14 30.39R WCI 4  
LAWRENCE MOCLDY 19 14 81 NW12 30.43R WCI 7  
 

 
 
MOZ001>008-011>017-020>025-030>033-038>040-044>046-053-054-210800-   
..NORTHERN AND CENTRAL MISSOURI
 
 
 
CITY SKY/WX TMP DP RH WIND PRES REMARKS
 
ST. JOSEPH PTCLDY 17 13 84 N14 30.46R WCI 3  
MOSBY CLOUDY 21 18 86 N8 30.43R WCI 12  
WARRENSBURG MOCLDY 21 18 86 NW7 30.40R WCI 13  
WHITEMAN AFB NOT AVBL  
CLINTON CLOUDY 25 21 86 CALM 30.39R  
SEDALIA CLOUDY 25 21 85 N16 30.38R WCI 12  
WARSAW NOT AVBL  
CHILLICOTHE N/A 21 16 81 VRB6 30.43R WCI 13  
KIRKSVILLE CLOUDY 21 15 78 N14G23 30.36R WCI 8  
 

 
 
MOZ041-047>049-056>058-063>065-088>090-097-210800-   
..EASTERN AND SOUTHERN MISSOURI
 
 
 
CITY SKY/WX TMP DP RH WIND PRES REMARKS
 
ST. LOUIS INTL RAIN 33 32 96 N12 30.24F WCI 24  
SPIRIT OF STL LGT RAIN 33 32 96 N12 30.24F WCI 24  
COLUMBIA CLOUDY 27 24 89 N15 30.32R WCI 15  
JEFFERSON CITY FRZ RAIN 29 25 85 N10G22 30.36R FOG WCI 20  
ROLLA FRZ RAIN 30 30 100 NW15G24 30.28R FOG WCI 19  
OSAGE BEACH CLOUDY 27 26 96 N8 30.34R WCI 19  
SPRINGFIELD CLOUDY 28 26 92 N15 30.27R WCI 16  
BRANSON LGT RAIN 32 32 100 N9 30.25R WCI 24  
JOPLIN CLOUDY 25 23 92 N16G24 30.32S WCI 12  
 

 
 
IAZ060-094-KSZ022-034>040-054-083-096-NEZ052-066-093-210800-    
..KANSAS...SOUTHEAST NEBRASKA AND IOWA
 
 
 
CITY SKY/WX TMP DP RH WIND PRES REMARKS
 
TOPEKA PTCLDY 18 13 80 N13 30.45R WCI 5  
MANHATTAN CLEAR 18 9 68 N9 30.45R WCI 7  
EMPORIA CLOUDY 17 12 80 N15 30.38S WCI 2  
CHANUTE CLOUDY 22 17 81 N15 30.36 WCI 9  
WICHITA PTCLDY 20 13 74 N15G24 30.42R WCI 6  
OMAHA CLEAR 11 5 77 N10 30.49R WCI -3  
LINCOLN CLEAR 10 4 76 N7 30.52R WCI -1  
FALLS CITY PTCLDY 14 8 77 N8 30.46R WCI 3  
LAMONI MOCLDY 17 11 77 N12 30.40R WCI 4  
DES MOINES MOCLDY 15 9 76 NW14 30.43R WCI 0  
 

 
 
 
 
CLICK HERE TO GO TO PREVIOUS BULLETINS.

The Nexlab MO Page
The Nexlab KS Page Main Text Page